Location: Newark
(35.6799°N, 139.7636°E)
Time: 20:02:45
(UTC+00:00)

Explorer 7 - Pass Details

Date: 11 December 2019
Orbit: 485 x 679 km, 50.3° (Epoch: 29 January)

Event Time Altitude Azimuth Distance (km) Brightness Sun altitude
Rises 10:17:14 0° 312° (NW) 3,034 11.1 -33.6°
Enters shadow 10:20:03 - 329° (NNW) 2,203 10.1 -34.2°
Reaches altitude 10° 10:20:26 10° 333° (NNW) 2,111 - -34.2°
Maximum altitude 10:23:35 17° 13° (NNE) 1,682 - -34.9°
Drops below altitude 10° 10:26:41 10° 54° (NE) 2,069 - -35.5°
Sets 10:29:46 0° 74° (ENE) 2,948 - -36.1°
